Victoria, TX

9:00 AM CDT on October 21, 2019 (GMT -0500)
Victoria Regional

Weather History for KVCT - August, 2019

Change the Weather History Date:

Thursday, August 15, 2019

  Actual Average Record
Temperature  
Mean Temperature 90 °F 85 °F  
Max Temperature 102 °F 95 °F 102 °F (1951)
Min Temperature 78 °F 74 °F 64 °F (2004)
Degree Days  
Heating Degree Days 0 0  
Month to date heating degree days 0 0  
Since 1 June heating degree days 0 0  
Since 1 July heating degree days 0 0  
Cooling Degree Days 25 20  
Month to date cooling degree days 345 300  
Year to date cooling degree days 2298 2053  
Since 1 June cooling degree days 1530 1394  
Growing Degree Days 40 (Base 50)    
Moisture  
Dew Point 74 °F    
Average Humidity 63    
Maximum Humidity 91    
Minimum Humidity 35    
Precipitation  
Precipitation 0.00 in 0.08 in 0.80 in (1979)
Month to date precipitation 0.10 1.17  
Year to date precipitation 14.74 25.19  
Snow  
Snow 0.00 in 0.00 in 0.00 in (2002)
Month to date snowfall 0.0 0.0  
Since 1 June snowfall 0.0 0.0  
Since 1 July snowfall 0.0 0.0  
Snow Depth 0.00 in    
Sea Level Pressure  
Sea Level Pressure 29.94 in    
Wind  
Wind Speed 6 mph (South)    
Max Wind Speed 22 mph    
Max Gust Speed 25 mph    
Visibility 10 miles    
Events      
T = Trace of Precipitation, MM = Missing Value Source: NWS Daily Summary

Daily Weather History Graph

Daily Weather History Graph

Search for Another Location

Airport or City:

Astronomy

Aug. 15, 2019 Rise Set
Actual Time 6:56 AM CDT 8:07 PM CDT
Civil Twilight 6:31 AM CDT 8:32 PM CDT
Nautical Twilight 6:02 AM CDT 9:01 PM CDT
Astronomical Twilight 5:31 AM CDT 9:31 PM CDT
Moon 8:35 PM CDT (8/15) 6:56 AM CDT (8/15)
Length of Visible Light 14h 00m
Length of Day
13h 10m
Full, 100% of the Moon is Illuminated
Aug 15
Full
Aug 23
Last Quarter
Aug 30
New
Sep 5
First Quarter
Sep 13
Full

Hourly Weather History & Observations

Time (CDT) Temp. Heat Index Dew Point Humidity Pressure Visibility Wind Dir Wind Speed Gust Speed Precip Events Conditions
12:51 AM 82.0 °F 89.4 °F 75.9 °F 82% 29.95 in 10.0 mi SSW 8.1 mph - N/A   Clear
1:51 AM 82.0 °F 89.4 °F 75.9 °F 82% 29.94 in 10.0 mi Calm Calm - N/A   Clear
2:09 AM 82.0 °F 89.4 °F 75.9 °F 82% 29.94 in 10.0 mi Calm Calm - N/A   Mostly Cloudy
2:51 AM 81.0 °F 87.9 °F 77.0 °F 88% 29.95 in 10.0 mi Calm Calm - N/A   Scattered Clouds
3:14 AM 80.1 °F 85.4 °F 75.9 °F 87% 29.96 in 10.0 mi North 4.6 mph - N/A   Mostly Cloudy
3:32 AM 80.1 °F 85.4 °F 75.9 °F 87% 29.97 in 10.0 mi NNE 3.5 mph - N/A   Mostly Cloudy
3:51 AM 80.1 °F 85.4 °F 75.9 °F 87% 29.96 in 10.0 mi Calm Calm - N/A   Mostly Cloudy
4:02 AM 80.1 °F 85.4 °F 75.9 °F 87% 29.96 in 10.0 mi Calm Calm - N/A   Scattered Clouds
4:51 AM 79.0 °F - 75.0 °F 88% 29.95 in 10.0 mi South 3.5 mph - N/A   Clear
5:51 AM 79.0 °F - 75.0 °F 88% 29.97 in 8.0 mi North 5.8 mph - N/A   Clear
6:11 AM 78.1 °F - 75.0 °F 90% 29.98 in 8.0 mi North 3.5 mph - N/A   Mostly Cloudy
6:34 AM 78.1 °F - 75.0 °F 90% 29.98 in 8.0 mi Calm Calm - N/A   Mostly Cloudy
6:51 AM 78.1 °F - 75.0 °F 90% 29.98 in 9.0 mi Calm Calm - N/A   Mostly Cloudy
7:51 AM 81.0 °F 87.9 °F 77.0 °F 88% 29.99 in 6.0 mi Calm Calm - N/A   Scattered Clouds
8:51 AM 84.9 °F 94.1 °F 75.9 °F 74% 30.00 in 8.0 mi North - - N/A   Scattered Clouds
8:54 AM 84.0 °F 92.6 °F 75.9 °F 76% 30.01 in 10.0 mi WSW 9.2 mph - N/A   Scattered Clouds
9:51 AM 87.1 °F 96.3 °F 75.0 °F 67% 30.00 in 10.0 mi SW 10.4 mph - N/A   Scattered Clouds
10:41 AM 88.0 °F 97.5 °F 75.0 °F 65% 30.01 in 10.0 mi SSW 8.1 mph - N/A   Mostly Cloudy
10:51 AM 91.0 °F 100.4 °F 73.9 °F 57% 30.00 in 10.0 mi SW 9.2 mph - N/A   Overcast
11:51 AM 91.9 °F 100.7 °F 73.0 °F 54% 29.98 in 10.0 mi WSW 6.9 mph - N/A   Scattered Clouds
12:51 PM 95.0 °F 104.5 °F 73.0 °F 49% 29.97 in 10.0 mi SW 9.2 mph - N/A   Scattered Clouds
1:51 PM 97.0 °F 105.5 °F 72.0 °F 44% 29.94 in 10.0 mi Variable 3.5 mph - N/A   Partly Cloudy
2:51 PM 96.1 °F 103.5 °F 71.1 °F 44% 29.91 in 10.0 mi Calm Calm - N/A   Mostly Cloudy
3:51 PM 99.0 °F 108.5 °F 72.0 °F 42% 29.88 in 10.0 mi Variable 6.9 mph - N/A   Partly Cloudy
4:51 PM 102.0 °F 111.3 °F 71.1 °F 37% 29.86 in 10.0 mi NE 5.8 mph - N/A   Clear
4:54 PM 100.9 °F 109.7 °F 71.1 °F 38% 29.87 in 10.0 mi NE 5.8 mph - N/A   Scattered Clouds
5:51 PM 102.0 °F 109.6 °F 70.0 °F 35% 29.86 in 10.0 mi East 6.9 mph - N/A   Scattered Clouds
6:14 PM 96.1 °F 105.6 °F 73.0 °F 47% 29.86 in 10.0 mi SE 19.6 mph - N/A   Scattered Clouds
6:51 PM 93.0 °F 104.6 °F 75.0 °F 56% 29.87 in 10.0 mi SE 18.4 mph - N/A   Scattered Clouds
7:51 PM 90.0 °F 96.9 °F 72.0 °F 55% 29.87 in 10.0 mi SE 15.0 mph - N/A   Partly Cloudy
8:51 PM 88.0 °F 93.8 °F 71.1 °F 57% 29.89 in 10.0 mi South 6.9 mph - N/A   Clear
9:51 PM 84.0 °F 90.2 °F 73.0 °F 69% 29.90 in 10.0 mi South 5.8 mph - N/A   Clear
10:51 PM 84.0 °F 91.2 °F 73.9 °F 72% 29.93 in 10.0 mi SSE 6.9 mph - N/A   Clear
11:51 PM 82.0 °F 87.9 °F 73.9 °F 76% 29.94 in 10.0 mi South 5.8 mph - N/A   Clear